Eelde, Netherlands

8:35 AM CEST on August 21, 2017 (GMT +0200)
Eelde

Weather History for EHGG - January, 2014

Change the Weather History Date:

Friday, January 31, 2014

  Actual Average Record
Temperature  
Mean Temperature 32 °F -  
Max Temperature 39 °F 40 °F 51 °F (2002)
Min Temperature 24 °F 29 °F 17 °F (2003)
Degree Days  
Heating Degree Days 34    
Moisture  
Dew Point 26 °F    
Average Humidity 81    
Maximum Humidity 93    
Minimum Humidity 63    
Precipitation  
Precipitation 0.00 in 0.06 in - ()
Sea Level Pressure  
Sea Level Pressure 29.72 in    
Wind  
Wind Speed 8 mph ()    
Max Wind Speed 14 mph    
Max Gust Speed -    
Visibility 3.2 miles    
Events      
Averages and records for this station are not official NWS values.
T = Trace of Precipitation, MM = Missing Value Source: Averaged Metar Reports

Daily Weather History Graph

Daily Weather History Graph

Search for Another Location

Airport or City:

Trip Planner

Search our weather history database for the weather conditions in past years. The results will help you decide how hot, cold, wet, or windy it might be!

Date:

Astronomy

Jan. 31, 2014 Rise Set
Actual Time 8:19 AM CET 5:15 PM CET
Civil Twilight 7:41 AM CET 5:53 PM CET
Nautical Twilight 6:59 AM CET 6:35 PM CET
Astronomical Twilight 6:19 AM CET 7:15 PM CET
Moon 8:05 AM CET (1/31) 6:36 PM CET (1/31)
Length of Visible Light 10h 12m
Length of Day
8h 56m
New Moon, 0% of the Moon is Illuminated
Jan 31
New Moon
Feb 6
First Quarter
Feb 15
Full
Feb 22
Last Quarter
Mar 1
New

Hourly Weather History & Observations

Time (CET) Temp. Windchill Dew Point Humidity Pressure Visibility Wind Dir Wind Speed Gust Speed Precip Events Conditions
12:00 AM 29 °F - 25 °F 77% 29.81 in 3 mi East 8.9 mph - -   Light Haze
12:25 AM 28.4 °F 19.7 °F 24.8 °F 86% 29.80 in - East 9.2 mph - N/A   Haze
12:55 AM 28.4 °F 20.4 °F 24.8 °F 86% 29.80 in - East 8.1 mph - N/A   Mist
1:00 AM 28 °F - 24 °F 79% 29.81 in 3 mi East 8.9 mph - -   Mist
1:25 AM 28.4 °F 20.4 °F 23.0 °F 80% 29.80 in - East 8.1 mph - N/A   Mist
1:55 AM 26.6 °F 17.5 °F 23.0 °F 86% 29.80 in - East 9.2 mph - N/A   Mist
2:00 AM 28 °F - 24 °F 77% 29.81 in 3 mi East 8.9 mph - -   Mist
2:25 AM 26.6 °F 18.2 °F 23.0 °F 86% 29.80 in - East 8.1 mph - N/A   Mist
2:55 AM 26.6 °F 17.5 °F 23.0 °F 86% 29.80 in - East 9.2 mph - N/A   Mist
3:00 AM 27 °F - 23 °F 79% 29.81 in 3 mi East 8.9 mph - -   Mist
3:25 AM 26.6 °F 18.2 °F 23.0 °F 86% 29.80 in - East 8.1 mph - N/A   Mist
3:55 AM 26.6 °F 17.5 °F 23.0 °F 86% 29.80 in - East 9.2 mph - N/A   Mist
4:00 AM 26 °F - 22 °F 81% 29.80 in 3 mi East 6.7 mph - -   Mist
4:25 AM 26.6 °F 17.5 °F 23.0 °F 86% 29.77 in - East 9.2 mph - N/A   Mist
4:55 AM 26.6 °F 17.5 °F 23.0 °F 86% 29.77 in - East 9.2 mph - N/A   Mist
5:00 AM 25 °F - 22 °F 84% 29.79 in 3 mi East 8.9 mph - -   Mist
5:25 AM 24.8 °F 15.3 °F 21.2 °F 86% 29.77 in - East 9.2 mph - N/A   Partly Cloudy
5:55 AM 24.8 °F 15.3 °F 21.2 °F 86% 29.77 in - East 9.2 mph - N/A   Mist
6:00 AM 25 °F - 22 °F 82% 29.78 in 2 mi East 8.9 mph - -   Mist
6:25 AM 24.8 °F 14.6 °F 21.2 °F 86% 29.77 in - East 10.4 mph - N/A   Mist
6:55 AM 24.8 °F 15.3 °F 21.2 °F 86% 29.77 in - ESE 9.2 mph - N/A   Mist
7:00 AM 24 °F - 22 °F 86% 29.79 in 2 mi ESE 6.7 mph - -   Mist
7:25 AM 24.8 °F 16.1 °F 21.2 °F 86% 29.77 in 2.2 mi East 8.1 mph - N/A   Scattered Clouds
7:55 AM 24.8 °F 16.9 °F 21.2 °F 86% 29.77 in - ESE 6.9 mph - N/A   Mist
8:00 AM 24 °F - 21 °F 85% 29.79 in 2 mi ESE 6.7 mph - -   Mist
8:25 AM 24.8 °F 17.9 °F 21.2 °F 86% 29.77 in 2.2 mi East 5.8 mph - N/A   Mist
8:55 AM 24.8 °F 17.9 °F 21.2 °F 86% 29.77 in - ESE 5.8 mph - N/A   Partly Cloudy
9:00 AM 24 °F - 22 °F 87% 29.80 in 2 mi ESE 6.7 mph - -   Mist
9:25 AM 24.8 °F 16.1 °F 21.2 °F 86% 29.77 in - ESE 8.1 mph - N/A   Partly Cloudy
9:55 AM 24.8 °F 16.9 °F 23.0 °F 93% 29.77 in - ESE 6.9 mph - N/A   Scattered Clouds
10:00 AM 25 °F - 22 °F 85% 29.78 in 2 mi ESE 8.9 mph - -   Mist
10:25 AM 26.6 °F 18.2 °F 23.0 °F 86% 29.77 in - ESE 8.1 mph - N/A   Scattered Clouds
10:55 AM 26.6 °F 18.2 °F 23.0 °F 86% 29.77 in - ESE 8.1 mph - N/A   Mostly Cloudy
11:00 AM 27 °F - 23 °F 78% 29.78 in 3 mi ESE 8.9 mph - -   Mist
11:25 AM 28.4 °F 20.4 °F 23.0 °F 80% 29.77 in - ESE 8.1 mph - N/A   Mist
11:55 AM 28.4 °F 20.4 °F 24.8 °F 86% 29.74 in 2.8 mi SE 8.1 mph - N/A   Mist
12:00 PM 29 °F - 24 °F 75% 29.76 in 3 mi ESE 6.7 mph - -   Mist
12:25 PM 30.2 °F 23.4 °F 24.8 °F 80% 29.74 in - ESE 6.9 mph - N/A   Mist
12:55 PM 32.0 °F 25.6 °F 24.8 °F 75% 29.74 in - SE 6.9 mph - N/A   Haze
1:00 PM 32 °F - 26 °F 69% 29.75 in 3 mi SE 6.7 mph - -   Light Haze
1:25 PM 32.0 °F 26.4 °F 24.8 °F 75% 29.71 in 3.1 mi ESE 5.8 mph - N/A   Haze
1:55 PM 33.8 °F 27.7 °F 26.6 °F 75% 29.71 in 3.1 mi SE 6.9 mph - N/A   Haze
2:00 PM 34 °F - 27 °F 65% 29.73 in 3 mi SSE 6.7 mph - -   Light Haze
2:25 PM 35.6 °F 29.9 °F 26.6 °F 70% 29.71 in 3.1 mi SSE 6.9 mph - N/A   Haze
2:55 PM 35.6 °F 29.9 °F 28.4 °F 75% 29.71 in 3.1 mi SSE 6.9 mph - N/A   Haze
3:00 PM 36 °F - 28 °F 63% 29.72 in 3 mi SE 6.7 mph - -   Light Haze
3:25 PM 35.6 °F 29.2 °F 28.4 °F 75% 29.71 in 3.1 mi SSE 8.1 mph - N/A   Haze
3:55 PM 35.6 °F 29.2 °F 28.4 °F 75% 29.68 in 3.1 mi SSE 8.1 mph - N/A   Haze
4:00 PM 35 °F - 29 °F 71% 29.71 in 3 mi SSE 6.7 mph - -   Light Haze
4:25 PM 35.6 °F 30.7 °F 28.4 °F 75% 29.68 in 3.1 mi SE 5.8 mph - N/A   Haze
4:55 PM 33.8 °F 30.8 °F 28.4 °F 81% 29.68 in - SE 3.5 mph - N/A   Haze
5:00 PM 32 °F - 28 °F 78% 29.70 in 3 mi ESE 4.5 mph - -   Mist
5:25 PM 32.0 °F 26.4 °F 28.4 °F 87% 29.68 in - ESE 5.8 mph - N/A   Mist
5:55 PM 32.0 °F 25.6 °F 28.4 °F 87% 29.68 in - SE 6.9 mph - N/A   Mist
6:00 PM 33 °F - 29 °F 78% 29.68 in 3 mi SE 6.7 mph - -   Mist
6:25 PM 33.8 °F 27.7 °F 30.2 °F 87% 29.65 in - ESE 6.9 mph - N/A   Mist
6:55 PM 33.8 °F 27.7 °F 30.2 °F 87% 29.65 in 2.8 mi SE 6.9 mph - N/A   Mist
7:00 PM 35 °F - 30 °F 75% 29.66 in 3 mi SE 6.7 mph - -   Mist
7:25 PM 35.6 °F 29.2 °F 32.0 °F 87% 29.65 in - SE 8.1 mph - N/A   Mist
7:55 PM 35.6 °F 28.6 °F 32.0 °F 87% 29.62 in 3.1 mi SE 9.2 mph - N/A   Mist
8:00 PM 36 °F - 32 °F 80% 29.63 in 3 mi SE 11.2 mph - -   Mist
8:25 PM 37.4 °F 30.8 °F 32.0 °F 81% 29.62 in 3.1 mi SE 9.2 mph - N/A   Mist
8:55 PM 37.4 °F 30.8 °F 32.0 °F 81% 29.59 in 3.1 mi SE 9.2 mph - N/A   Mist
9:00 PM 38 °F - 33 °F 75% 29.60 in 4 mi SE 11.2 mph - -   Mist
9:25 PM 39.2 °F 32.0 °F 33.8 °F 81% 29.56 in 3.7 mi SE 11.5 mph - N/A   Unknown
9:55 PM 39.2 °F 32.0 °F 33.8 °F 81% 29.56 in 4.3 mi SSE 11.5 mph - N/A   Unknown
10:00 PM 39 °F - 33 °F 71% 29.57 in 4 mi SSE 11.2 mph - -   Mist
10:25 PM 39.2 °F 32.0 °F 32.0 °F 75% 29.56 in 5.0 mi SSE 11.5 mph - N/A   Unknown
10:55 PM 39.2 °F 31.2 °F 32.0 °F 75% 29.53 in 5.0 mi SSE 13.8 mph - N/A   Unknown
11:00 PM 39 °F - 33 °F 70% 29.55 in 5 mi SSE 13.4 mph - -   Mist
11:25 PM 39.2 °F 31.2 °F 32.0 °F 75% 29.53 in 5.6 mi SSE 13.8 mph - N/A   Unknown
11:55 PM 39.2 °F 31.2 °F 32.0 °F 75% 29.50 in 6.2 mi SSE 13.8 mph - N/A   Unknown